Simultaneous Nadir Overpasses (SNOs) Predictions

Prediction of SNOs between LANDSAT-8 and NOAA-19 Satellite Orbit:

Table of predicted SNOs for the next 14.0 days since TLE Epoch: 7/21/2023
Index Date (LANDSAT-8) Time (LANDSAT-8) Lat,Lon (LANDSAT-8) SZA (LANDSAT-8 ) Date (NOAA-19) Time (NOAA-19) Lat,Lon (NOAA-19) SZA (NOAA-19 ) Distance(km) Time Diff (sec)
1 07/23/2023 20:23:49 -80.94, 91.43 117.28 07/23/2023 20:23:11 -80.94, 91.54 117.29 1.90 38
2 07/23/2023 21:13:15 80.95,-100.84 62.74 07/23/2023 21:14:14 80.94,-101.01 62.75 3.00 59
3 07/26/2023 02:47:02 -80.93, -4.45 116.82 07/26/2023 02:46:38 -80.94, -4.54 116.83 1.59 24
4 07/26/2023 03:36:28 80.94, 163.25 63.20 07/26/2023 03:37:40 80.94, 163.11 63.22 2.43 72
5 07/28/2023 09:10:14 -80.95,-100.08 116.28 07/28/2023 09:10:03 -80.94, -99.93 116.28 2.72 11
6 07/30/2023 15:33:27 -80.93, 163.84 115.79 07/30/2023 15:33:30 -80.94, 163.87 115.78 1.44 3
7 08/01/2023 21:07:11 80.95, -99.31 64.81 08/01/2023 21:05:59 80.94, -99.46 64.76 2.76 72
8 08/01/2023 21:56:38 -80.95, 68.37 115.18 08/01/2023 21:56:55 -80.94, 68.36 115.18 1.11 17
9 08/04/2023 03:30:23 80.94, 164.76 65.38 08/04/2023 03:29:24 80.94, 164.75 65.35 0.08 59



Historial Predications of SNOs between LANDSAT-8 and NOAA-19
